EW7372 Weather Reports


time (UTC)temp
C
wind
direction
speed
KPH
gust
KPH
rain 1hr
cm
rain 24hr
cm
rain mn
cm
humidity
%
barometer
mb
20260504190010 22 40 0.0 0.0 0.00 0.00 0.00 35 1006.3
20260504184503 22 9 0.0 0.0 0.00 0.00 0.00 37 1006.4
20260504183103 21 32 0.0 0.0 0.00 0.00 0.00 38 1006.4
20260504181556 21 33 0.0 0.0 0.00 0.00 0.00 41 1006.5
20260504180131 20 113 0.0 0.0 0.00 0.00 0.00 44 1006.6
20260504174549 20 321 0.0 0.0 0.00 0.00 0.00 45 1006.6
20260504173046 18 236 0.0 0.0 0.00 0.00 0.00 49 1006.6
20260504171542 18 266 0.0 0.0 0.00 0.00 0.00 52 1006.6
20260504081527 12 266 0.0 0.0 0.00 0.00 0.00 64 1005.7
20260504050011 17 266 0.0 0.0 0.00 0.00 0.00 47 1005.8
20260504044510 18 266 0.0 0.0 0.00 0.00 0.00 46 1005.8
20260504043014 18 266 0.0 0.0 0.00 0.00 0.00 45 1005.8
20260504041509 18 263 0.0 0.0 0.00 0.00 0.00 44 1005.7
20260504040016 19 263 0.0 0.0 0.00 0.00 0.00 43 1005.7
20260504034508 20 263 0.0 0.0 0.00 0.00 0.00 42 1005.5
20260504033007 21 263 0.0 0.0 0.00 0.00 0.00 41 1005.4
20260504031510 22 263 0.0 0.0 0.00 0.00 0.00 38 1005.4
20260504030007 23 263 0.0 0.0 0.00 0.00 0.00 34 1005.4
20260504024506 25 263 0.0 0.0 0.00 0.00 0.00 31 1005.4
20260504023005 25 263 0.0 0.0 0.00 0.00 0.00 29 1005.4
20260504021505 26 263 0.0 0.0 0.00 0.00 0.00 25 1005.5
20260504020003 27 240 0.0 0.0 0.00 0.00 0.00 24 1005.6
20260504014501 28 275 0.0 0.0 0.00 0.00 0.00 22 1005.7
20260504013106 28 291 0.0 0.0 0.00 0.00 0.00 23 1005.9
20260504011600 29 275 0.0 0.0 0.00 0.00 0.00 21 1005.9
20260504010058 29 252 0.0 0.0 0.00 0.00 0.00 22 1006.1
20260504004554 28 242 0.0 0.0 0.00 0.00 0.00 22 1006.2
20260504003050 28 291 0.0 3.2 0.00 0.00 0.00 22 1006.4
20260504001550 28 309 0.0 0.0 0.00 0.00 0.00 23 1006.6
20260504000051 27 244 0.0 0.0 0.00 0.00 0.00 23 1006.7
20260503234544 27 231 0.0 0.0 0.00 0.00 0.00 23 1006.9
20260503233043 27 199 0.0 0.0 0.00 0.00 0.00 23 1007.0
20260503231541 28 336 0.0 1.6 0.00 0.00 0.00 23 1007.2
20260503230039 27 50 0.0 0.0 0.00 0.00 0.00 23 1007.5
20260503224539 27 337 0.0 3.2 0.00 0.00 0.00 23 1007.7
20260503223034 27 223 0.0 0.0 0.00 0.00 0.00 22 1008.0
20260503221533 27 255 0.0 0.0 0.00 0.00 0.00 22 1008.2
20260503220029 26 296 0.0 0.0 0.00 0.00 0.00 23 1008.3
20260503214538 26 306 0.0 0.0 0.00 0.00 0.00 23 1008.7
20260503213021 25 266 0.0 0.0 0.00 0.00 0.00 24 1008.9
20260503211516 25 248 0.0 0.0 0.00 0.00 0.00 24 1009.0
20260503210013 24 271 0.0 0.0 0.00 0.00 0.00 28 1009.4
20260503204510 24 257 0.0 0.0 0.00 0.00 0.00 27 1009.7
20260503203006 23 355 0.0 0.0 0.00 0.00 0.00 27 1009.9
20260503201506 23 304 0.0 4.8 0.00 0.00 0.00 27 1010.1
20260503200118 23 269 0.0 6.4 0.00 0.00 0.00 28 1010.3
20260503194604 23 246 0.0 0.0 0.00 0.00 0.00 28 1010.5
20260503193102 22 281 0.0 4.8 0.00 0.00 0.00 27 1010.6
20260503191559 22 286 0.0 0.0 0.00 0.00 0.00 29 1010.8